Time,TemperatureF,DewpointF,PressureIn,WindDirection,WindDirectionDegrees,WindSpeedMPH,WindSpeedGustMPH,Humidity,HourlyPrecipIn,Conditions,Clouds,dailyrainin,SoftwareType,DateUTC
2013-01-30 18:19:00,49.3,47.1,29.13,SE,135,2.9,2.9,92,0.00,,,0.00,WUHU216HW,2013-01-30 23:19:00,
2013-01-30 18:24:00,49.3,47.1,29.13,SSE,158,3.1,4.0,92,0.00,,,0.00,WUHU216HW,2013-01-30 23:24:00,
2013-01-30 18:29:00,49.3,47.1,29.11,SE,135,0.2,4.0,92,0.00,,,0.00,WUHU216HW,2013-01-30 23:29:00,
2013-01-30 18:34:00,49.3,47.1,29.11,SSE,158,1.1,3.1,92,0.00,,,0.00,WUHU216HW,2013-01-30 23:34:00,
2013-01-30 18:41:00,49.3,47.1,29.11,SSE,158,6.3,6.3,92,0.00,,,0.00,WUHU216HW,2013-01-30 23:41:00,
2013-01-30 18:51:00,49.3,47.1,29.11,SE,135,3.8,6.5,92,0.01,,,0.01,WUHU216HW,2013-01-30 23:51:00,
2013-01-30 18:56:00,49.1,46.9,29.12,ESE,113,6.7,6.7,92,0.02,,,0.02,WUHU216HW,2013-01-30 23:56:00,
2013-01-30 19:01:00,48.4,45.1,29.13,WSW,248,2.9,6.7,88,0.02,,,0.02,WUHU216HW,2013-01-31 00:01:00,
2013-01-30 19:06:00,47.5,43.8,29.13,NNW,338,5.1,6.7,87,0.02,,,0.02,WUHU216HW,2013-01-31 00:06:00,
2013-01-30 19:11:00,46.6,43.0,29.13,NNW,338,2.5,8.3,87,0.03,,,0.03,WUHU216HW,2013-01-31 00:11:00,
2013-01-30 19:16:00,45.9,42.3,29.13,SE,135,2.2,8.3,87,0.04,,,0.04,WUHU216HW,2013-01-31 00:16:00,
2013-01-30 19:21:00,45.5,42.2,29.11,WNW,293,1.8,5.8,88,0.04,,,0.04,WUHU216HW,2013-01-31 00:21:00,
2013-01-30 19:26:00,45.0,41.7,29.12,WNW,293,4.3,5.8,88,0.05,,,0.05,WUHU216HW,2013-01-31 00:26:00,
2013-01-30 19:31:00,44.8,41.9,29.13,NNE,23,1.8,5.4,89,0.05,,,0.05,WUHU216HW,2013-01-31 00:31:00,
2013-01-30 19:36:00,44.6,41.9,29.14,SSW,203,4.7,4.7,90,0.06,,,0.06,WUHU216HW,2013-01-31 00:36:00,
2013-01-30 19:41:00,44.6,41.7,29.12,NNW,338,1.3,5.4,89,0.06,,,0.06,WUHU216HW,2013-01-31 00:41:00,
2013-01-30 19:46:00,44.3,41.3,29.11,WNW,293,0.9,5.4,89,0.05,,,0.06,WUHU216HW,2013-01-31 00:46:00,
2013-01-30 19:51:00,44.3,41.3,29.12,NW,315,2.5,5.4,89,0.05,,,0.06,WUHU216HW,2013-01-31 00:51:00,
2013-01-30 19:56:00,44.1,41.1,29.11,West,270,1.1,3.4,89,0.05,,,0.07,WUHU216HW,2013-01-31 00:56:00,
2013-01-30 20:01:00,43.9,41.0,29.12,WSW,248,1.8,2.7,89,0.05,,,0.07,WUHU216HW,2013-01-31 01:01:00,
2013-01-30 20:06:00,43.7,40.8,29.12,SW,225,1.8,2.9,89,0.04,,,0.07,WUHU216HW,2013-01-31 01:06:00,
2013-01-30 20:11:00,43.6,40.9,29.12,North,0,1.3,2.9,90,0.04,,,0.07,WUHU216HW,2013-01-31 01:11:00,
2013-01-30 20:16:00,43.4,40.7,29.12,West,270,1.3,3.4,90,0.03,,,0.07,WUHU216HW,2013-01-31 01:16:00,
2013-01-30 20:21:00,43.4,40.7,29.12,NE,45,1.8,3.4,90,0.02,,,0.07,WUHU216HW,2013-01-31 01:21:00,
2013-01-30 20:26:00,43.2,40.5,29.12,SSE,158,0.7,3.4,90,0.02,,,0.07,WUHU216HW,2013-01-31 01:26:00,
2013-01-30 20:31:00,43.0,40.3,29.12,SW,225,1.8,4.0,90,0.03,,,0.08,WUHU216HW,2013-01-31 01:31:00,
2013-01-30 20:36:00,42.8,40.1,29.12,WNW,293,2.7,4.7,90,0.02,,,0.08,WUHU216HW,2013-01-31 01:36:00,
2013-01-30 20:41:00,42.8,39.9,29.11,WSW,248,9.8,9.8,89,0.02,,,0.08,WUHU216HW,2013-01-31 01:41:00,
2013-01-30 20:46:00,42.5,39.5,29.11,West,270,2.2,9.8,89,0.02,,,0.08,WUHU216HW,2013-01-31 01:46:00,
2013-01-30 20:51:00,42.3,39.6,29.11,WSW,248,2.7,9.8,90,0.02,,,0.08,WUHU216HW,2013-01-31 01:51:00,
2013-01-30 20:56:00,42.1,39.4,29.12,South,180,0.7,2.7,90,0.01,,,0.08,WUHU216HW,2013-01-31 01:56:00,
2013-01-30 21:01:00,41.9,39.0,29.12,SSW,203,2.2,4.9,89,0.01,,,0.08,WUHU216HW,2013-01-31 02:01:00,
2013-01-30 21:06:00,41.6,38.6,29.12,West,270,2.7,5.4,89,0.02,,,0.09,WUHU216HW,2013-01-31 02:06:00,
2013-01-30 21:11:00,41.0,37.7,29.12,WNW,293,2.5,7.6,88,0.02,,,0.09,WUHU216HW,2013-01-31 02:11:00,
2013-01-30 21:16:00,40.7,37.7,29.12,WSW,248,1.1,7.6,89,0.02,,,0.09,WUHU216HW,2013-01-31 02:16:00,
2013-01-30 21:21:00,40.5,37.5,29.12,SE,135,2.5,2.7,89,0.02,,,0.09,WUHU216HW,2013-01-31 02:21:00,
2013-01-30 21:26:00,40.3,37.4,29.12,NNE,23,1.8,4.3,89,0.01,,,0.09,WUHU216HW,2013-01-31 02:26:00,
2013-01-30 21:31:00,40.1,37.2,29.13,SE,135,1.1,4.3,89,0.01,,,0.09,WUHU216HW,2013-01-31 02:31:00,
2013-01-30 21:36:00,40.0,37.3,29.12,NE,45,1.1,4.9,90,0.01,,,0.09,WUHU216HW,2013-01-31 02:36:00,
2013-01-30 21:41:00,39.8,37.1,29.13,South,180,2.0,4.9,90,0.01,,,0.09,WUHU216HW,2013-01-31 02:41:00,
2013-01-30 21:46:00,39.6,36.9,29.13,SE,135,3.4,4.3,90,0.01,,,0.09,WUHU216HW,2013-01-31 02:46:00,
2013-01-30 21:51:00,39.6,36.9,29.12,WNW,293,3.8,4.3,90,0.01,,,0.09,WUHU216HW,2013-01-31 02:51:00,
2013-01-30 21:56:00,39.4,36.7,29.12,NW,315,1.1,4.3,90,0.01,,,0.09,WUHU216HW,2013-01-31 02:56:00,
2013-01-30 22:01:00,39.2,36.5,29.11,WNW,293,2.5,7.6,90,0.00,,,0.09,WUHU216HW,2013-01-31 03:01:00,
2013-01-30 22:06:00,39.1,36.1,29.12,NNW,338,1.1,7.6,89,0.00,,,0.09,WUHU216HW,2013-01-31 03:06:00,
2013-01-30 22:11:00,39.1,36.1,29.12,NW,315,1.6,7.2,89,0.00,,,0.09,WUHU216HW,2013-01-31 03:11:00,
2013-01-30 22:16:00,38.9,35.9,29.12,NW,315,2.2,6.3,89,0.00,,,0.09,WUHU216HW,2013-01-31 03:16:00,
2013-01-30 22:21:00,38.9,35.9,29.12,NW,315,1.1,3.8,89,0.00,,,0.09,WUHU216HW,2013-01-31 03:21:00,
2013-01-30 22:26:00,38.7,35.7,29.12,NW,315,3.4,4.5,89,0.00,,,0.09,WUHU216HW,2013-01-31 03:26:00,
2013-01-30 22:31:00,38.5,35.6,29.12,ENE,68,1.8,5.1,89,0.00,,,0.09,WUHU216HW,2013-01-31 03:31:00,
2013-01-30 22:36:00,38.5,35.6,29.13,WNW,293,1.6,6.9,89,0.00,,,0.09,WUHU216HW,2013-01-31 03:36:00,
2013-01-30 22:41:00,38.5,35.6,29.13,West,270,3.6,7.8,89,0.00,,,0.09,WUHU216HW,2013-01-31 03:41:00,
2013-01-30 22:46:00,38.2,35.5,29.14,WNW,293,4.3,7.8,90,0.00,,,0.09,WUHU216HW,2013-01-31 03:46:00,
2013-01-30 22:51:00,37.3,34.0,29.14,NW,315,1.8,9.2,88,0.01,,,0.10,WUHU216HW,2013-01-31 03:51:00,
2013-01-30 22:56:00,36.7,33.5,29.14,ESE,113,1.6,9.2,88,0.01,,,0.10,WUHU216HW,2013-01-31 03:56:00,
2013-01-30 23:01:00,36.5,33.3,29.14,WSW,248,1.8,7.6,88,0.01,,,0.10,WUHU216HW,2013-01-31 04:01:00,
2013-01-30 23:06:00,36.4,33.1,29.15,NNW,338,2.5,7.2,88,0.01,,,0.10,WUHU216HW,2013-01-31 04:06:00,
2013-01-30 23:11:00,35.6,32.0,29.15,West,270,3.8,8.7,87,0.01,,,0.10,WUHU216HW,2013-01-31 04:11:00,
2013-01-30 23:16:00,35.1,31.5,29.16,NNW,338,5.8,8.7,87,0.01,,,0.10,WUHU216HW,2013-01-31 04:16:00,
2013-01-30 23:21:00,34.9,31.3,29.16,WNW,293,3.8,6.5,87,0.01,,,0.10,WUHU216HW,2013-01-31 04:21:00,
2013-01-30 23:26:00,34.6,31.0,29.17,WNW,293,2.7,8.5,87,0.01,,,0.10,WUHU216HW,2013-01-31 04:26:00,
2013-01-30 23:31:00,34.2,30.6,29.17,North,0,2.9,8.5,87,0.01,,,0.10,WUHU216HW,2013-01-31 04:31:00,
2013-01-30 23:36:00,34.2,30.3,29.17,SW,225,5.6,7.4,86,0.01,,,0.10,WUHU216HW,2013-01-31 04:36:00,
2013-01-30 23:41:00,33.8,30.2,29.17,SW,225,5.1,7.6,87,0.01,,,0.10,WUHU216HW,2013-01-31 04:41:00,
2013-01-30 23:46:00,33.5,30.2,29.19,NNW,338,5.8,8.5,88,0.00,,,0.10,WUHU216HW,2013-01-31 04:46:00,
2013-01-30 23:51:00,33.1,30.3,29.19,NNW,338,2.7,8.5,89,0.00,,,0.10,WUHU216HW,2013-01-31 04:51:00,
2013-01-30 23:56:00,32.8,29.0,29.19,WNW,293,5.1,6.3,86,0.00,,,0.10,WUHU216HW,2013-01-31 04:56:00,